Back to catalog

SL-12 R/B

AUX MOTOR

AliveHEO
NORAD 21220·ROCKET BODY·🇷🇺 Russia

Launched Apr 4, 1991 from Baikonur Cosmodrome

Loading…

Next Passes (next 24 hours)

TLE

FreshSource: Space-Track

Epoch: Sep 14, 2026, 13:17 UTC

1 21220U 91025F   26257.55385415  .00000123  00000-0  74540-3 0  9991
2 21220  65.1132 200.9572 5481776 112.3429 313.0308  4.44051388554832

Track SL-12 R/B in real time with AllMySat

Download on the App Store